Terminal Aerodrome Forecast
Issued by NWS Quad Cities IA IL

Home | Current Version | Previous Version | Text Only | Print | Product List | Glossary On
Versions: 1 2 3 4 5 6 7 8 9 10 11 12 13 14 15 16 17 18 19 20 21 22
873
FTUS43 KDVN 281147
TAFDBQ
TAF
KDBQ 281147Z 2812/2912 18012G24KT P6SM BKN050 WS020/19040KT
      TEMPO 2812/2814 3SM TSRA BKN035CB
     FM281400 16013KT P6SM -RA BKN025
     FM281700 21014G25KT P6SM SCT050 BKN150
     FM282200 22012KT 5SM TSRA BR OVC030CB
     FM290100 20008KT P6SM BKN080=

USA.gov is the U.S. government's official web portal to all federal, state and local government web resources and services.